GOES 1 [-]

Last updated on Sun Nov 20 2016 17:18:59 GMT+0000 (Coordinated Universal Time)

1 08366U 75100A 16325.25192436 -.00000156 00000-0 00000+0 0 9997 2 08366 12.3733 320.9953 0007170 266.6110 182.5588 1.00316687150153
UTC large
Height (km)
Speed (km/s)
/
Latitude / Longitude
Inclination (degrees)
Orbital Period (minutes)
Azimuth
Elevation
Range (km)
Doppler Factor

Next 0 passes for location: London (51.5072 / 0.1276)

Sorry there are no passes over London.